Location: *
(49.9853°N, 3.5569°E)
Time: 11:11:26
(UTC+00:00)

Cosmos 2074 Rocket - Pass Details

Date: 22 September 2019
Orbit: 966 x 987 km, 82.9° (Epoch: 17 October)

Event Time Altitude Azimuth Distance (km) Brightness Sun altitude
Rises 18:16:55 0° 348° (NNW) 3,687 7.3 -6.0°
Reaches altitude 10° 18:19:27 10° 347° (NNW) 2,732 6.6 -6.4°
Maximum altitude 18:25:40 70° 265° (W) 1,030 4.4 -7.4°
Drops below altitude 10° 18:31:49 10° 183° (S) 2,703 6.3 -8.4°
Sets 18:34:18 0° 181° (S) 3,644 6.9 -8.8°
